Regional Weather Roundup
Issued by NWS

Home | Current Version | Previous Version | Graphics & Text | Print | Product List | Glossary On
Versions: 1 2 3 4 5 6 7 8 9 10 11 12 13 14 15 16 17 18 19 20 21 22 23 24 25 26 27 28 29 30 31 32 33 34 35 36 37 38 39 40 41 42 43 44 45 46 47 48 49 50
000
ASUS43 KDTX 301310
RWRMI
MICHIGAN HOURLY REGIONAL WEATHER ROUNDUP
NATIONAL WEATHER SERVICE DETROIT/PONTIAC MI
900 AM EDT FRI SEP 30 2016

NOTE: "FAIR" INDICATES FEW OR NO CLOUDS BELOW 12,000 FEET WITH NO
SIGNIFICANT WEATHER AND/OR OBSTRUCTION TO VISIBILITY.

MIZ047>049-052>055-059>063-066>070-074>076-081>083-301400-
SOUTHEAST LOWER MICHIGAN

CITY           SKY/WX    TMP DP  RH WIND       PRES   REMARKS
ADRIAN         CLOUDY    61  61 100 E14       30.14R
ALMA           DRIZZLE   59  59 100 NE9       30.22S
ANN ARBOR      CLOUDY    61  60  97 NE10      30.15R FOG
BAD AXE        MOSUNNY   59  55  87 E8        30.25S
CARO           CLOUDY    58  55  89 E6        30.22S
DETROIT CITY   CLOUDY    59  59 100 E12       30.17S
DETROIT        CLOUDY    63  60  90 E10G20    30.16S
FLINT          CLOUDY    58  56  93 E9        30.20R FOG
GROSSE ILE     CLOUDY    62  60  93 E8        30.14R
HILLSDALE      CLOUDY    61  59  94 NE8       30.12S
HOWELL         CLOUDY    58  58  98 NE10G17   30.17S FOG

CITY           SKY/WX    TMP DP  RH WIND       PRES   REMARKS
JACKSON        CLOUDY    60  60 100 NE8       30.14F
LAMBERTVILLE   DRIZZLE   64  60  86 E5        30.13R
LANSING        CLOUDY    59  56  89 NE12      30.19R FOG
LAPEER         CLOUDY    57  55  92 E6        30.22R
MASON          LGT RAIN  58  58  97 NE9       30.16F
MONROE         CLOUDY    64  61  90 E13G22    30.13R
MT. CLEMENS    CLOUDY    58  56  92 NE12      30.17R
PONTIAC        CLOUDY    58  55  90 E13       30.17S
PORT HURON     CLOUDY    57  55  94 E9        30.22R
TRI CITIES     CLOUDY    60  58  92 NE13      30.24R
MIDLAND        CLOUDY    59  57  91 NE8       30.22F
TROY           CLOUDY    59  56  88 NE10G16   30.19S
SAGINAW HB     CLOUDY    59  55  88 NE9       30.22S
$$
MIZ043>046-050>051-056>058-064>065-071>073-077>080-301400-
SOUTHWEST LOWER MICHIGAN

CITY           SKY/WX    TMP DP  RH WIND       PRES   REMARKS
BATTLE CREEK   LGT RAIN  59  59 100 NE10      30.15S FOG
BENTON HARBOR  CLOUDY    61  56  83 NE9G17    30.13S
BIG RAPIDS     DRIZZLE   58  57  97 E7        30.23F
COLDWATER      CLOUDY    60  60 100 NE9       30.12S
FREMONT        CLOUDY    58  57  97 NE7G16    30.22S
HOLLAND        CLOUDY    60  58  92 NE7       30.18S
GRAND RAPIDS   RAIN      59  57  93 NE13      30.19S FOG
IONIA          LGT RAIN  58  56  96 NE13      30.19R
KALAMAZOO      CLOUDY    60  57  89 NE7       30.16S FOG
LUDINGTON      CLOUDY    59  56  90 NE8       30.23F
MARSHALL       CLOUDY    59  59  99 CALM      30.14S
MOUNT PLEASANT CLOUDY    58  57  96 NE9       30.23S
MUSKEGON       CLOUDY    59  58  96 NE9       30.20F
SOUTH HAVEN    CLOUDY    61  59  95 NE9       30.16R
$$
MIZ016>042-301400-
NORTHERN LOWER MICHIGAN

CITY           SKY/WX    TMP DP  RH WIND       PRES   REMARKS
ALPENA         CLOUDY    61  53  75 E8G21     30.34S
BEAVER ISLAND  MOSUNNY   60  55  85 E13G21    30.36S
BELLAIRE       MOSUNNY   61  54  78 NE12G17   30.30F
CADILLAC       CLOUDY    56  55  94 NE9       30.26S FOG
CHARLEVOIX     CLOUDY    61  56  82 E13       30.35F
FRANKFORT      CLOUDY    61  55  81 NE5       30.27F
GAYLORD        CLOUDY    58  52  80 NE12      30.32F
GRAYLING       CLOUDY    59  55  85 NE14G20   30.30F
HARBOR SPRINGS CLOUDY    60  55  85 NE10G18   30.33F
HOUGHTON LAKE  CLOUDY    57  54  89 NE10      30.28F
MANISTEE       CLOUDY    60  55  83 NE9       30.25F
OSCODA         PTSUNNY   62  55  77 E16G22    30.28F
PELLSTON       CLOUDY    60  54  80 E9        30.36S
ROGERS CITY    CLOUDY    60  56  85 E10       30.36F
TRAVERSE CITY  CLOUDY    62  56  80 NE8       30.28F
$$
MIZ007>008-015-301400-
EASTERN UPPER MICHIGAN

CITY           SKY/WX    TMP DP  RH WIND       PRES   REMARKS
KINROSS        SUNNY     54  50  86 E10       30.39F
MACKINAC ISLAN PTSUNNY   58  53  85 NE14      30.36F
NEWBERRY       SUNNY     51  51  97 N5        30.40R
S. S. MARIE    SUNNY     56  49  77 NE6       30.40S
MUNISING         N/A     49  48  97 S3        30.40S
$$
MIZ004>006-011>014-085-301400-
CENTRAL UPPER MICHIGAN

CITY           SKY/WX    TMP DP  RH WIND       PRES   REMARKS
MANISTIQUE     MOSUNNY   52  50  92 N7        30.38S
ESCANABA       MOSUNNY   57  52  83 N9        30.36F
MENOMINEE      PTSUNNY   57  54  88 NE13      30.33F
SAWYER-GWINN   SUNNY     54  54 100 NE7       30.41S
$$
MIZ001>003-009>011-084-301400-
WESTERN UPPER MICHIGAN

CITY           SKY/WX    TMP DP  RH WIND       PRES   REMARKS
IRON MOUNTAIN  MOSUNNY  N/A N/A N/A MISG      30.39S
HOUGHTON       CLOUDY    56  54  93 E7        30.44R
COPPER HARBOR    N/A     56  54  93 SE3       30.44R
IRONWOOD       CLOUDY    48  48 100 E5        30.45S FOG
$$

ABBREVIATIONS USED IN REMARKS
   TC - TEMPERATURE IN CELSIUS
  WCI - WIND CHILL INDEX
   HX - HEAT INDEX
  VSB - VISIBILITY





USA.gov is the U.S. government's official web portal to all federal, state and local government web resources and services.